STARLINK-2106 (47386 NORAD) Tracking and Keplerian Element Data

This shows tracking and keplerian element data for the satellite.

Feedback or suggestion? Click here.




ElementValue
Catalog47386
NameSTARLINK-2106
Epoch Orbit1431
Epoch Day105.91667824
Epoch Year2021
RAAN152.3947
Inclination53.0532
Eccentricity0.000431
Argument of Perigee6.2377
Mean Anonmoly343.8475
Mean Motion15.62768734
Decay Rate-0.00013991
L11 47386U 21005AP 21105.91667824 -.00013991 00000-0 -14702-3 0 9990
L22 47386 53.0532 152.3947 0004310 6.2377 343.8475 15.62768734 14314

Live tracking and technical data element details for STARLINK-2106 (NORAD 47386). STARLINK-2106 can be tracked NOW for your location showing map with azimuth and elevation plus other details from your city location.

Track the satellite on the map from your city or location and see movement details for azimuth, elevation, latitude, longitude, range, height, and movement on the map or in text.







IsCatalogInMostPopularTable: catalog: 47386, numindb: 16
Update: records affected: 1



GetName: 47386 STARLINK-2106

Hit Count: updated at: Fri, 16 Apr 2021 12:19:04 GMT